TimeEDT,TemperatureF,Dew PointF,Humidity,Sea Level PressureIn,VisibilityMPH,Wind Direction,Wind SpeedMPH,Gust SpeedMPH,PrecipitationIn,Events,Conditions,WindDirDegrees,DateUTC
12:54 AM,43.0,37.9,82,30.00,10.0,SSW,8.1,-,N/A,,Clear,200,2012-10-10 04:54:00
1:54 AM,44.1,41.0,89,29.99,10.0,South,9.2,-,N/A,,Clear,190,2012-10-10 05:54:00
2:54 AM,45.0,42.1,90,29.98,10.0,SSW,8.1,-,N/A,,Clear,200,2012-10-10 06:54:00
3:54 AM,44.1,42.1,93,29.96,10.0,SSW,8.1,-,N/A,,Clear,210,2012-10-10 07:54:00
4:54 AM,46.0,43.0,89,29.95,10.0,SSW,9.2,-,N/A,,Partly Cloudy,210,2012-10-10 08:54:00
5:54 AM,46.0,43.0,89,29.95,10.0,SSW,5.8,-,N/A,,Mostly Cloudy,200,2012-10-10 09:54:00
6:54 AM,44.1,41.0,89,29.97,10.0,SW,6.9,-,N/A,,Clear,230,2012-10-10 10:54:00
7:54 AM,48.0,43.0,83,29.99,10.0,WSW,11.5,-,N/A,,Overcast,240,2012-10-10 11:54:00
8:43 AM,48.2,44.6,87,29.98,10.0,West,10.4,-,0.00,,Overcast,260,2012-10-10 12:43:00
8:54 AM,48.0,44.1,86,30.02,10.0,West,10.4,-,0.00,Rain,Light Rain,270,2012-10-10 12:54:00
9:37 AM,48.2,44.6,87,30.00,10.0,West,9.2,-,0.00,,Overcast,280,2012-10-10 13:37:00
9:54 AM,48.0,44.1,86,30.05,10.0,West,8.1,-,0.00,,Overcast,280,2012-10-10 13:54:00
10:23 AM,50.0,44.6,82,30.02,10.0,West,12.7,-,N/A,,Overcast,280,2012-10-10 14:23:00
10:54 AM,48.9,42.1,77,30.07,10.0,NW,13.8,-,N/A,,Overcast,320,2012-10-10 14:54:00
11:54 AM,48.9,37.0,64,30.09,10.0,WNW,15.0,-,N/A,,Mostly Cloudy,300,2012-10-10 15:54:00
12:02 PM,51.8,37.4,58,30.05,10.0,West,18.4,24.2,N/A,,Mostly Cloudy,280,2012-10-10 16:02:00
12:54 PM,54.0,37.0,53,30.10,10.0,WNW,13.8,21.9,N/A,,Scattered Clouds,290,2012-10-10 16:54:00
1:54 PM,55.0,35.1,47,30.09,10.0,West,16.1,-,N/A,,Scattered Clouds,270,2012-10-10 17:54:00
2:54 PM,55.0,34.0,45,30.08,10.0,West,18.4,24.2,N/A,,Partly Cloudy,270,2012-10-10 18:54:00
3:54 PM,53.1,32.0,45,30.10,10.0,West,16.1,26.5,N/A,,Scattered Clouds,270,2012-10-10 19:54:00
4:54 PM,54.0,30.9,41,30.12,10.0,West,20.7,27.6,N/A,,Scattered Clouds,280,2012-10-10 20:54:00
5:54 PM,51.1,32.0,48,30.15,10.0,WNW,13.8,-,N/A,,Partly Cloudy,290,2012-10-10 21:54:00
6:54 PM,48.0,30.0,50,30.18,10.0,West,8.1,18.4,N/A,,Clear,280,2012-10-10 22:54:00
7:54 PM,46.0,28.9,51,30.21,10.0,West,6.9,-,N/A,,Clear,280,2012-10-10 23:54:00
8:54 PM,44.1,28.9,55,30.24,10.0,WNW,5.8,-,N/A,,Clear,290,2012-10-11 00:54:00
9:54 PM,37.9,30.0,73,30.27,10.0,SSW,3.5,-,N/A,,Clear,210,2012-10-11 01:54:00
10:54 PM,37.9,30.0,73,30.27,10.0,SW,3.5,-,N/A,,Clear,230,2012-10-11 02:54:00
11:54 PM,36.0,28.9,76,30.28,10.0,West,3.5,-,N/A,,Clear,270,2012-10-11 03:54:00